Location: Home
(42.5358°N, 72.7383°W)
Time: 19:02:55
(UTC-04:00)

First-Move - Pass Details

Date: 25 August 2022
Orbit: 569 x 659 km, 97.6° (Epoch: 27 September)

Event Time Altitude Azimuth Distance (km) Brightness Sun altitude
Rises 05:15:25 0° 6° (N) 2,841 ? -10.0°
Reaches altitude 10° 05:17:40 10° 1° (N) 1,922 ? -9.6°
Maximum altitude 05:21:39 48° 288° (WNW) 767 ? -9.0°
Drops below altitude 10° 05:25:33 10° 213° (SSW) 1,874 ? -8.3°
Enters shadow 05:26:40 - 210° (SSW) 2,329 ? -8.1°
